Weather History for KPHF - November, 2012

Change the Weather History Date:

Tuesday, November 27, 2012

  Actual Average Record
Temperature  
Mean Temperature 46 °F -  
Max Temperature 54 °F 59 °F 79 °F (1973)
Min Temperature 37 °F 39 °F 21 °F (1950)
Degree Days  
Heating Degree Days 20    
Moisture  
Dew Point 38 °F    
Average Humidity 72    
Maximum Humidity 87    
Minimum Humidity 54    
Precipitation  
Precipitation 0.11 in - - ()
Sea Level Pressure  
Sea Level Pressure 30.17 in    
Wind  
Wind Speed 5 mph (NW)    
Max Wind Speed 12 mph    
Max Gust Speed 17 mph    
Visibility 8 miles    
Events Rain    
Averages and records for this station are not official NWS values.
T = Trace of Precipitation, MM = Missing Value Source: NWS Daily Summary

Daily Weather History Graph

Daily Weather History Graph

Search for Another Location

Airport or City:

Trip Planner

Search our weather history database for the weather conditions in past years. The results will help you decide how hot, cold, wet, or windy it might be!

Date:

Astronomy

Nov. 27, 2012 Rise Set
Actual Time 6:57 AM EST 4:49 PM EST
Civil Twilight 6:29 AM EST 5:18 PM EST
Nautical Twilight 5:57 AM EST 5:50 PM EST
Astronomical Twilight 5:25 AM EST 6:21 PM EST
Moon 4:19 PM EST (11/27) 6:01 AM EST (11/27)
Length of Visible Light 10h 49m
Length of Day
9h 52m
Waxing Gibbous, 99% of the Moon is Illuminated
Nov 27
Waxing Gibbous
Nov 28
Full
Dec 6
Last Quarter
Dec 13
New
Dec 20
First Quarter

Hourly Weather History & Observations

Time (EST) Temp. Windchill Dew Point Humidity Pressure Visibility Wind Dir Wind Speed Gust Speed Precip Events Conditions
12:54 AM 37.9 °F - 34.0 °F 86% 30.19 in 2.5 mi Calm Calm - N/A   Clear
1:05 AM 37.4 °F - 33.8 °F 87% 30.19 in 4.0 mi Calm Calm - N/A   Clear
1:54 AM 42.1 °F - 37.0 °F 82% 30.19 in 8.0 mi Calm Calm - N/A   Mostly Cloudy
2:54 AM 48.0 °F - 39.0 °F 71% 30.19 in 10.0 mi SSE 5.8 mph - N/A   Overcast
3:54 AM 48.9 °F - 35.1 °F 59% 30.16 in 10.0 mi South 8.1 mph - N/A   Overcast
4:54 AM 51.1 °F - 35.1 °F 54% 30.17 in 10.0 mi South 5.8 mph - N/A   Overcast
5:54 AM 51.1 °F - 37.0 °F 59% 30.16 in 10.0 mi South 5.8 mph - N/A   Overcast
6:54 AM 50.0 °F - 37.0 °F 61% 30.17 in 10.0 mi Calm Calm - N/A   Overcast
7:54 AM 48.9 °F - 39.9 °F 71% 30.17 in 10.0 mi Calm Calm - N/A   Overcast
8:54 AM 52.0 °F - 37.9 °F 59% 30.17 in 10.0 mi South 3.5 mph - N/A   Overcast
9:54 AM 54.0 °F - 37.9 °F 55% 30.17 in 9.0 mi SSW 6.9 mph - N/A   Overcast
10:54 AM 53.1 °F - 37.0 °F 55% 30.14 in 9.0 mi SSW 5.8 mph - N/A   Overcast
11:54 AM 53.1 °F - 37.0 °F 55% 30.13 in 10.0 mi West 9.2 mph - N/A   Overcast
12:54 PM 52.0 °F - 39.0 °F 61% 30.11 in 10.0 mi WNW 4.6 mph - 0.00 in   Overcast
1:54 PM 53.1 °F - 37.9 °F 57% 30.10 in 10.0 mi WNW 9.2 mph - N/A   Overcast
2:54 PM 52.0 °F - 39.9 °F 63% 30.12 in 10.0 mi NNW 11.5 mph 16.1 mph N/A   Overcast
3:54 PM 48.9 °F - 39.9 °F 71% 30.15 in 5.0 mi NNW 8.1 mph - 0.00 in Rain Light Rain
4:45 PM 46.4 °F 45.2 °F 42.8 °F 87% 30.17 in 5.0 mi NW 3.5 mph - 0.04 in Rain Light Rain
4:54 PM 46.9 °F - 42.1 °F 83% 30.17 in 4.0 mi NW 5.8 mph - 0.05 in Rain Light Rain
5:18 PM 46.4 °F 41.5 °F 42.8 °F 87% 30.16 in 4.0 mi NNW 10.4 mph - 0.02 in Rain Light Rain
5:37 PM 46.4 °F 41.9 °F 41.0 °F 81% 30.16 in 5.0 mi NNW 9.2 mph - N/A Rain Light Rain
5:54 PM 46.0 °F 43.1 °F 41.0 °F 83% 30.16 in 4.0 mi North 5.8 mph - 0.04 in Rain Light Rain
6:54 PM 46.0 °F 43.9 °F 41.0 °F 83% 30.18 in 6.0 mi North 4.6 mph - 0.02 in   Haze
7:54 PM 44.1 °F 40.1 °F 39.0 °F 82% 30.20 in 5.0 mi NNW 6.9 mph - N/A   Haze
8:54 PM 44.1 °F 39.5 °F 39.0 °F 82% 30.21 in 5.0 mi NNW 8.1 mph - N/A   Haze
9:08 PM 44.6 °F 39.2 °F 37.4 °F 76% 30.22 in 5.0 mi North 10.4 mph 17.3 mph N/A   Haze
9:54 PM 43.0 °F 36.8 °F 36.0 °F 76% 30.22 in 9.0 mi North 11.5 mph - N/A   Overcast
10:44 PM 42.8 °F 38.0 °F 35.6 °F 76% 30.22 in 10.0 mi North 8.1 mph - N/A   Overcast
10:54 PM 43.0 °F 37.7 °F 36.0 °F 76% 30.22 in 10.0 mi NNW 9.2 mph - N/A   Overcast
11:54 PM 43.0 °F 37.7 °F 35.1 °F 74% 30.22 in 10.0 mi NNE 9.2 mph - N/A   Overcast